Location: Newark
(20.0000°S, 47.0000°E)
Time: 04:18:26
(UTC+00:00)

N. Korean satellite - Pass Details

Date: 21 March 2019
Orbit: 457 x 508 km, 97.2° (Epoch: 19 April)

Event Time Altitude Azimuth Distance (km) Brightness Sun altitude
Rises 15:23:04 0° 187° (S) 2,577 10.4 -5.7°
Reaches altitude 10° 15:25:27 10° 201° (SSW) 1,678 9.6 -6.3°
Maximum altitude 15:28:22 24° 255° (WSW) 1,047 9.4 -6.9°
Drops below altitude 10° 15:31:14 10° 310° (NW) 1,637 10.0 -7.6°
Sets 15:33:31 0° 324° (NW) 2,497 10.7 -8.2°
